Theta_e
307 307 308 310 313 315 318 320 319 319 321 323 325 327 329 330 333 336 337 336 333 331 335 336 337 339 342 342 339 332 328 324 321 322 324 326 324 325 326 326 328 326 325
308 309 311 312 313 313 313 315 320 321 322 322 324 326 327 330 330 335 337 335 333 331 335 339 341 345 341 343 336 332 327 326 323 320 322 324 323 324 324 324 327 331 326
310 310 308 309 309 309 311 313 316 320 321 320 322 322 323 324 326 330 333 337 343 342 342 343 343 343 342 339 335 331 328 328 327 322 321 323 322 322 321 321 322 321 324
305 304 304 304 305 307 308 310 314 317 319 322 322 324 325 325 326 327 328 333 338 343 344 344 345 343 341 337 334 333 328 326 325 324 322 318 319 320 320 317 317 318 317
306 305 304 305 305 305 305 306 309 313 315 319 322 321 322 324 326 326 326 327 334 336 339 342 343 341 333 332 334 330 326 323 323 322 318 316 317 316 317 317 316 317 318
304 304 306 306 306 306 305 306 306 307 310 311 313 318 318 321 314 312 316 324 330 336 337 342 343 328 328 320 321 321 325 324 321 319 317 316 315 316 317 317 315 314 316
304 305 306 306 306 306 307 307 306 306 311 313 315 318 319 321 311 308 310 320 323 332 337 340 335 339 329 330 316 317 316 313 319 322 319 317 316 318 318 316 315 315 314
304 304 306 306 306 306 305 306 306 305 307 310 313 316 316 317 308 306 309 320 324 329 336 337 333 328 329 328 326 324 322 322 321 325 323 321 320 321 322 321 318 316 318
304 304 305 306 305 305 305 305 306 304 307 307 310 311 312 316 309 307 309 322 324 329 335 334 333 329 311 309 325 322 319 317 308 306 307 305 305 306 315 321 317 318 316
304 304 305 305 304 304 305 304 305 305 306 308 313 316 314 318 310 302 307 320 324 329 328 328 312 324 304 306 324 321 317 316 317 316 318 315 311 311 307 321 323 319 315
305 306 305 305 304 305 305 304 304 305 305 306 310 313 316 317 318 305 302 317 326 328 324 327 326 304 301 304 310 323 318 316 312 316 316 316 317 317 320 320 321 320 316
305 305 304 304 305 306 305 304 305 305 303 306 309 312 315 316 309 307 302 301 314 329 326 327 317 299 301 300 310 300 299 310 318 316 315 315 317 319 320 319 321 323 324
304 302 303 304 305 306 304 304 304 305 304 305 308 310 311 315 317 304 301 299 300 323 324 314 302 299 300 301 297 296 304 319 317 317 316 316 320 320 318 317 319 320 324
302 302 303 304 304 305 308 307 306 306 307 309 310 311 312 314 318 317 313 309 305 311 307 307 308 308 305 304 307 311 318 318 318 318 315 316 317 316 316 316 315 316 318
302 302 302 304 305 305 306 307 308 309 309 309 311 312 312 314 318 311 313 319 320 315 312 316 318 317 315 314 313 316 317 317 317 315 315 315 315 316 315 316 315 315 313
300 302 302 303 305 305 305 306 298 299 299 297 298 307 316 307 302 301 300 300 303 304 318 318 317 317 315 313 314 313 315 314 315 316 315 316 318 318 318 318 315 316 317
300 301 303 303 305 304 304 305 304 300 297 301 298 295 296 302 298 298 298 301 301 307 318 317 316 315 314 314 315 314 314 316 318 317 316 319 319 319 315 318 317 315 313
301 299 303 306 306 307 307 307 307 306 305 307 300 298 296 297 296 297 300 304 316 313 318 316 315 315 316 316 316 314 315 317 317 319 319 320 316 316 314 315 314 316 314
300 302 303 306 309 308 308 308 309 309 309 310 306 300 299 298 298 298 301 320 317 317 317 317 317 317 317 316 315 315 315 316 315 316 317 316 315 316 315 313 312 301 305
303 299 302 308 309 312 312 312 312 314 311 310 311 307 305 306 313 317 317 319 318 318 319 318 316 317 317 317 316 316 314 313 314 318 318 318 318 318 316 315 315 314 312
306 306 302 310 311 313 314 316 315 313 313 314 311 308 300 319 318 318 317 318 318 320 321 320 318 319 320 317 317 315 315 315 316 317 319 318 319 318 318 318 317 314 313
316 318 315 316 318 318 318 317 316 316 315 314 313 305 294 320 318 316 316 316 317 322 322 319 318 319 318 318 317 316 316 319 319 320 320 319 318 316 318 317 313 312 312
315 316 314 316 318 310 316 317 317 317 316 316 317 318 318 317 316 315 316 317 318 320 320 320 318 316 315 315 315 315 315 315 316 318 318 317 315 311 310 310 308 306 308
321 320 318 318 317 317 317 316 315 308 317 318 318 317 316 313 312 312 311 310 308 306 308 310 312 310 308 307 308 311 313 317 317 316 313 309 306 303 302 301 301 300 298
318 317 316 315 315 315 315 315 313 313 313 313 311 309 307 307 305 304 303 302 301 299 298 300 302 301 303 304 303 300 292 293 304 299 305 303 300 299 297 296 295 294 292
316 315 314 314 312 312 311 309 309 308 308 306 305 303 302 301 299 298 297 297 296 295 294 293 294 294 294 293 292 288 289 289 294 292 301 299 297 295 294 292 290 288 288
Wind_Speed
8 8 7 7 7 6 6 7 6 5 6 6 5 6 5 7 7 9 13 14 14 8 6 8 18 16 10 8 7 4 5 3 5 3 1 2 1 4 3 3 4 3 3
7 6 7 6 6 5 5 7 7 7 6 7 7 6 6 8 8 8 12 12 12 13 14 15 16 10 13 11 5 8 7 5 4 5 3 3 2 3 3 3 2 1 3
8 8 7 7 6 5 4 5 6 6 7 7 6 6 6 6 7 8 10 13 14 15 16 15 15 12 12 7 8 6 5 3 4 3 3 1 1 1 2 1 1 0 1
5 5 5 5 5 4 3 4 5 6 7 8 7 7 6 7 8 11 12 10 13 13 12 13 14 12 14 11 9 9 5 5 3 3 2 2 2 2 2 2 1 1 1
7 7 7 7 6 5 5 5 5 6 7 9 11 8 7 7 7 10 11 11 12 13 13 15 14 14 16 11 7 6 6 4 4 3 3 3 3 2 4 3 3 2 2
8 9 8 7 6 7 6 6 6 8 11 13 16 15 10 7 12 13 12 11 12 13 14 12 11 11 12 13 12 12 12 9 5 4 4 4 4 4 4 4 4 3 3
11 10 10 8 8 7 7 7 7 8 9 13 16 13 8 8 11 13 16 10 11 11 14 11 8 8 10 7 6 10 9 8 8 7 6 6 6 7 6 4 4 3 3
11 10 9 9 9 8 8 11 11 7 8 11 11 10 7 7 12 14 17 12 9 11 13 13 9 8 9 11 10 7 6 5 5 5 6 6 5 6 7 6 6 4 2
16 14 13 11 11 10 11 12 11 8 10 7 7 9 8 7 11 15 15 9 9 11 10 9 10 9 10 14 10 8 6 4 5 8 7 3 5 8 6 4 3 4 2
14 13 11 10 12 13 14 13 12 9 12 9 10 8 8 7 10 11 10 6 8 7 4 5 7 8 12 13 10 9 7 5 5 4 3 5 3 3 7 4 5 5 3
17 16 15 13 13 14 15 12 11 12 12 11 10 7 7 7 7 10 9 7 8 6 6 6 7 14 15 12 12 9 8 8 6 5 4 2 2 3 3 3 4 4 3
14 13 12 11 11 13 12 9 10 11 7 8 7 7 5 6 10 10 12 15 12 10 9 6 7 17 15 12 9 11 14 11 5 4 3 3 2 2 3 3 4 3 2
14 13 12 14 13 12 10 10 7 9 9 9 9 7 4 5 5 8 10 15 15 7 6 9 14 12 12 8 11 13 11 6 6 4 4 3 3 3 4 3 2 2 2
16 15 13 12 11 11 9 7 8 8 8 8 8 7 4 4 5 4 5 3 8 9 15 10 8 8 9 9 7 5 4 5 5 4 3 2 3 3 2 2 2 1 2
14 13 12 10 9 9 9 8 8 10 11 9 8 5 5 6 8 9 9 9 9 13 15 8 7 7 7 5 4 4 4 4 4 4 3 3 3 3 2 2 2 2 2
13 10 7 8 8 8 9 7 6 9 10 7 6 6 4 10 10 16 14 11 17 22 10 10 8 8 8 6 6 4 3 4 4 4 4 4 3 4 3 2 2 2 3
12 10 9 10 8 7 7 7 8 3 9 9 12 12 13 12 13 15 17 20 16 13 11 8 9 7 7 6 6 4 4 4 4 4 4 4 3 3 4 2 2 2 1
12 12 9 7 9 8 9 8 7 6 4 4 7 12 16 14 15 20 21 14 9 6 9 9 8 7 7 6 5 4 4 4 4 4 4 4 4 3 3 2 3 3 3
11 8 9 8 7 8 6 6 6 5 5 3 2 4 13 20 20 17 14 10 9 9 8 8 7 7 6 5 5 4 5 5 4 4 4 4 4 3 3 3 4 4 4
9 10 9 7 7 7 7 8 6 7 6 5 7 8 9 13 12 9 6 7 8 8 8 8 6 6 6 6 5 5 5 5 4 4 4 4 4 4 4 4 3 3 2
7 8 14 7 8 8 8 8 7 8 8 6 6 8 10 13 10 8 7 7 7 8 8 8 6 6 6 6 6 5 5 4 4 4 4 4 4 4 4 4 3 3 2
5 7 9 6 6 8 8 10 8 7 8 8 9 5 9 9 8 7 6 6 5 7 7 7 6 6 7 7 6 5 5 5 4 5 5 4 4 4 4 4 4 3 3
6 10 8 3 10 12 10 10 11 8 11 11 10 10 10 9 8 8 8 7 6 7 5 7 7 5 4 4 4 5 5 5 4 5 5 5 5 5 5 5 4 4 4
10 9 8 9 11 11 11 10 11 11 11 11 10 10 10 9 9 10 9 8 8 8 7 7 7 8 7 6 5 4 4 5 5 6 9 8 8 8 7 7 7 7 7
11 11 10 10 11 11 12 12 12 12 10 10 10 10 9 9 10 9 9 8 9 9 9 8 7 8 10 10 9 9 8 11 10 9 9 11 11 10 8 7 8 8 8
10 11 10 9 10 10 11 11 10 11 11 10 9 9 9 10 9 9 8 9 9 9 10 7 8 11 11 10 10 11 12 12 12 12 10 10 10 9 9 11 13 9 10
Wind_Direction
198 206 210 224 227 236 246 258 250 234 229 237 237 239 240 241 247 225 239 250 257 264 257 255 258 251 242 231 222 200 210 204 204 278 124 193 171 141 150 150 176 200 235
203 213 213 220 231 236 252 266 279 262 238 222 230 226 214 223 231 225 245 253 255 258 255 245 244 237 231 224 218 216 199 217 190 176 176 176 173 198 210 157 194 199 220
196 188 189 191 184 198 223 254 260 258 266 268 238 229 238 243 256 250 239 252 247 241 245 248 246 235 236 214 212 207 188 213 197 149 171 134 181 197 129 112 154 62 35
145 154 171 184 193 216 257 278 278 269 268 267 248 234 232 244 254 262 265 254 257 254 244 237 235 223 231 213 209 203 196 186 157 140 152 142 179 221 111 153 229 239 179
186 186 199 201 211 220 227 239 259 267 265 271 270 256 232 234 249 262 263 255 251 250 245 239 238 225 222 202 185 181 163 176 157 165 159 142 175 180 177 181 186 198 214
208 207 208 212 227 239 251 258 266 283 285 273 266 253 242 247 253 248 254 266 264 252 253 244 229 217 219 199 195 172 169 167 186 160 155 178 199 192 156 176 164 162 214
217 209 205 204 216 225 231 236 241 245 254 260 251 234 233 241 244 252 260 258 256 251 252 241 225 213 197 182 190 173 178 165 161 159 165 185 178 193 155 172 189 169 197
221 219 211 203 212 216 228 241 244 233 238 255 246 238 232 243 254 261 263 264 253 254 249 223 200 186 180 154 158 148 152 156 163 174 183 187 199 181 182 183 180 146 73
225 214 207 204 215 220 230 238 237 235 244 246 250 244 232 247 249 259 260 260 260 260 243 203 186 174 172 146 146 142 151 132 70 74 81 140 193 190 165 128 152 153 142
235 222 208 207 221 233 238 237 235 234 242 248 252 240 235 242 247 252 260 255 263 261 234 187 184 145 174 163 148 155 151 178 145 119 93 73 117 156 175 173 164 163 139
238 231 225 221 226 233 232 227 227 233 241 238 239 245 238 228 255 262 250 256 258 242 200 156 143 163 177 179 154 158 173 142 135 131 113 132 135 171 180 180 169 155 145
244 226 220 226 237 240 224 220 220 229 223 233 233 239 231 241 237 257 253 227 244 221 201 169 152 156 165 156 144 137 133 122 130 126 136 153 168 177 162 154 163 169 177
230 223 230 240 229 220 222 224 217 217 225 228 231 234 232 243 246 232 251 247 233 215 154 136 130 147 122 98 123 132 140 133 132 137 160 178 196 167 130 123 105 176 223
237 229 230 231 223 222 221 204 214 217 220 219 217 207 208 234 236 222 235 188 171 125 109 119 131 117 98 115 107 133 125 128 142 153 165 176 139 126 147 154 131 150 90
227 225 223 221 217 215 216 220 218 220 215 214 217 186 195 238 245 194 191 178 175 152 118 121 135 130 125 111 105 114 116 116 135 144 148 152 132 130 131 129 112 119 124
219 216 210 219 222 215 219 218 229 246 222 227 230 201 207 246 245 191 192 174 163 136 127 145 147 139 136 142 140 121 118 152 164 152 158 158 159 152 148 128 123 192 160
210 208 214 208 211 205 212 215 221 208 208 236 243 235 228 245 209 168 149 153 166 133 136 141 146 144 151 141 140 148 160 177 164 155 144 168 149 137 148 154 139 129 124
201 197 213 197 206 209 207 203 207 202 193 227 234 228 228 187 162 143 147 148 119 104 129 140 142 148 141 148 160 151 150 161 166 161 164 162 158 140 136 147 164 164 139
199 197 201 208 207 198 187 192 191 188 208 192 175 158 162 149 147 155 144 149 145 132 133 135 136 137 152 148 147 148 151 159 155 151 151 150 159 151 127 135 121 118 126
204 208 208 197 201 200 192 195 197 199 160 166 180 137 132 130 145 150 127 140 136 130 135 132 136 143 138 143 143 143 129 136 138 143 147 134 139 144 142 146 150 143 170
199 199 214 222 196 202 204 200 146 143 159 156 130 125 153 137 140 140 129 130 128 131 136 140 142 136 141 144 142 136 141 155 153 140 131 130 131 127 131 124 123 110 99
206 161 169 177 167 153 146 128 129 136 130 129 119 137 128 120 122 114 110 107 103 120 132 130 132 138 145 148 145 142 158 153 142 137 133 126 114 97 101 100 98 93 101
94 94 116 111 113 110 98 111 126 127 130 126 126 115 110 102 98 100 97 92 95 92 88 102 102 91 89 100 118 142 146 145 139 118 108 103 97 91 91 93 92 80 71
108 105 107 107 107 110 110 109 101 95 104 103 102 99 96 97 94 92 90 89 84 73 71 80 89 102 95 82 76 79 106 110 100 104 107 106 102 95 92 88 83 83 84
90 94 90 96 96 104 105 99 95 96 97 93 93 92 90 91 89 84 84 83 82 82 69 74 80 82 86 93 87 84 80 82 92 97 95 96 97 93 88 84 79 73 70
84 85 86 89 94 96 99 98 97 99 99 97 96 95 95 92 88 87 86 88 87 81 81 72 77 81 81 76 81 84 81 79 83 89 97 97 93 86 86 84 81 77 74